Ostrava, Czech Republic

4:31 AM CEST on April 26, 2018 (GMT +0200)
Mosnov

Weather History for LKMT - March, 2013

Change the Weather History Date:

Monday, March 25, 2013

  Actual Average Record
Temperature  
Mean Temperature 24 °F -  
Max Temperature 28 °F 54 °F - ()
Min Temperature 21 °F 36 °F - ()
Degree Days  
Heating Degree Days 40    
Moisture  
Dew Point 13 °F    
Average Humidity 59    
Maximum Humidity 68    
Minimum Humidity 39    
Precipitation  
Precipitation 0.00 in 0.06 in - ()
Sea Level Pressure  
Sea Level Pressure 30.02 in    
Wind  
Wind Speed 15 mph ()    
Max Wind Speed 24 mph    
Max Gust Speed 31 mph    
Visibility 8.2 miles    
Events      
T = Trace of Precipitation, MM = Missing Value Source: Averaged Metar Reports

Daily Weather History Graph

Daily Weather History Graph

Search for Another Location

Airport or City:

Astronomy

Mar. 25, 2013 Rise Set
Actual Time 5:39 AM CET 6:08 PM CET
Civil Twilight 5:07 AM CET 6:40 PM CET
Nautical Twilight 4:29 AM CET 7:18 PM CET
Astronomical Twilight 3:49 AM CET 7:58 PM CET
Moon 4:13 PM CET (3/25) 4:22 AM CET (3/25)
Length of Visible Light 13h 33m
Length of Day
12h 28m
Waxing Gibbous, 95% of the Moon is Illuminated
Mar 25
Waxing Gibbous
Mar 27
Full
Apr 3
Last Quarter
Apr 10
New
Apr 18
First Quarter

Hourly Weather History & Observations

Time (CET) Temp. Windchill Dew Point Humidity Pressure Visibility Wind Dir Wind Speed Gust Speed Precip Events Conditions
12:00 AM 23.0 °F 10.6 °F 10.4 °F 59% 30.12 in - NE 13.8 mph - N/A   Clear
12:30 AM 23.0 °F 10.6 °F 10.4 °F 59% 30.12 in - NE 13.8 mph - N/A   Clear
1:00 AM 22 °F - 10 °F 46% 30.20 in 12 mi NE 13.4 mph - -   Overcast
1:00 AM 23.0 °F 10.6 °F 12.2 °F 63% 30.12 in - NE 13.8 mph - N/A   Clear
1:30 AM 23.0 °F 11.1 °F 10.4 °F 59% 30.12 in - NE 12.7 mph - N/A   Clear
2:00 AM 21.2 °F 8.9 °F 10.4 °F 63% 30.09 in - NE 12.7 mph - N/A   Clear
2:30 AM 23.0 °F 10.6 °F 12.2 °F 63% 30.09 in - NE 13.8 mph - N/A   Clear
3:00 AM 21.2 °F 7.8 °F 12.2 °F 68% 30.09 in - NE 15.0 mph - N/A   Clear
3:30 AM 21.2 °F 7.8 °F 12.2 °F 68% 30.09 in - NE 15.0 mph - N/A   Clear
4:00 AM 21.2 °F 7.8 °F 12.2 °F 68% 30.06 in - NE 15.0 mph - N/A   Clear
4:30 AM 21.2 °F 6.8 °F 12.2 °F 68% 30.06 in - NE 17.3 mph - N/A   Clear
5:00 AM 21.2 °F 7.3 °F 12.2 °F 68% 30.06 in - NE 16.1 mph - N/A   Clear
5:30 AM 21.2 °F 7.3 °F 12.2 °F 68% 30.06 in - NE 16.1 mph - N/A   Clear
6:00 AM 21.2 °F 7.3 °F 12.2 °F 68% 30.06 in - NE 16.1 mph - N/A   Clear
6:30 AM 21.2 °F 7.3 °F 12.2 °F 68% 30.06 in - NE 16.1 mph - N/A   Clear
7:00 AM 22 °F - 11 °F 49% 30.15 in 7 mi NE 15.7 mph - -   Overcast
7:00 AM 23.0 °F 10.6 °F 12.2 °F 63% 30.06 in - NE 13.8 mph - N/A   Clear
7:30 AM 23.0 °F 10.6 °F 12.2 °F 63% 30.06 in - NE 13.8 mph - N/A   Clear
8:00 AM 23.0 °F 9.6 °F 12.2 °F 63% 30.06 in - NE 16.1 mph - N/A   Clear
8:30 AM 23.0 °F 9.6 °F 12.2 °F 63% 30.06 in - NE 16.1 mph - N/A   Clear
9:00 AM 24.8 °F 12.4 °F 12.2 °F 59% 30.06 in - NE 15.0 mph - N/A   Clear
9:30 AM 24.8 °F 11.5 °F 12.2 °F 59% 30.06 in - NE 17.3 mph - N/A   Clear
10:00 AM 24.8 °F 11.1 °F 12.2 °F 59% 30.06 in - NE 18.4 mph - N/A   Clear
10:30 AM 26.6 °F 13.8 °F 12.2 °F 55% 30.04 in - NE 17.3 mph - N/A   Clear
11:00 AM 28.4 °F 16.6 °F 14.0 °F 55% 30.04 in - NE 16.1 mph - N/A   Clear
11:30 AM 26.6 °F 13.8 °F 12.2 °F 55% 30.01 in - NE 17.3 mph - N/A   Clear
12:00 PM 26.6 °F 13.4 °F 14.0 °F 59% 30.01 in - NE 18.4 mph - N/A   Clear
12:30 PM 28.4 °F 15.8 °F 14.0 °F 55% 30.01 in - ENE 18.4 mph - N/A   Clear
1:00 PM 27 °F - 12 °F 39% 30.06 in 9 mi NE 20.1 mph - -   Overcast
1:00 PM 28.4 °F 15.1 °F 14.0 °F 55% 30.01 in - NE 20.7 mph - N/A   Clear
1:30 PM 28.4 °F 15.4 °F 14.0 °F 55% 29.98 in - NE 19.6 mph - N/A   Clear
2:00 PM 26.6 °F 13.4 °F 12.2 °F 55% 29.98 in - ENE 18.4 mph - N/A   Clear
2:30 PM 26.6 °F 12.7 °F 14.0 °F 59% 29.98 in - ENE 20.7 mph - N/A   Clear
3:00 PM 28.4 °F 15.1 °F 14.0 °F 55% 29.98 in - NE 20.7 mph - N/A   Clear
3:30 PM 28.4 °F 15.8 °F 14.0 °F 55% 29.95 in - ENE 18.4 mph - N/A   Clear
4:00 PM 28.4 °F 15.1 °F 14.0 °F 55% 29.95 in - NE 20.7 mph - N/A   Clear
4:30 PM 26.6 °F 12.4 °F 15.8 °F 64% 29.95 in - NE 21.9 mph - N/A   Clear
5:00 PM 26.6 °F 12.7 °F 14.0 °F 59% 29.95 in - NE 20.7 mph - N/A   Clear
5:30 PM 26.6 °F 14.7 °F 14.0 °F 59% 29.95 in 6.2 mi NE 15.0 mph - N/A   Partly Cloudy
6:00 PM 26.6 °F 12.7 °F 14.0 °F 59% 29.95 in 6.2 mi NE 20.7 mph - N/A   Partly Cloudy
6:30 PM 26.6 °F 12.7 °F 14.0 °F 59% 29.95 in - NE 20.7 mph - N/A   Clear
7:00 PM 27 °F - 12 °F 40% 30.00 in 9 mi ENE 17.9 mph - -   Overcast
7:00 PM 26.6 °F 13.1 °F 14.0 °F 59% 29.95 in - NE 19.6 mph - N/A   Clear
7:30 PM 26.6 °F 12.0 °F 14.0 °F 59% 29.92 in - NE 23.0 mph - N/A   Clear
8:00 PM 26.6 °F 11.7 °F 14.0 °F 59% 29.92 in - NE 24.2 mph - N/A   Clear
8:30 PM 26.6 °F 13.4 °F 14.0 °F 59% 29.92 in - NE 18.4 mph - N/A   Clear
9:00 PM 26.6 °F 13.4 °F 14.0 °F 59% 29.92 in - NE 18.4 mph - N/A   Clear
9:30 PM 26.6 °F 12.4 °F 12.2 °F 55% 29.89 in - NE 21.9 mph - N/A   Clear
10:00 PM 26.6 °F 13.1 °F 12.2 °F 55% 29.89 in - NE 19.6 mph - N/A   Clear
10:30 PM 26.6 °F 12.7 °F 10.4 °F 51% 29.89 in - NE 20.7 mph - N/A   Clear
11:00 PM 26.6 °F 12.7 °F 12.2 °F 55% 29.89 in - NE 20.7 mph - N/A   Clear
11:30 PM 26.6 °F 13.1 °F 12.2 °F 55% 29.89 in - NE 19.6 mph 31.1 mph N/A   Clear